IGO5206 VEIM-VECC

Flight info

Callsign IGO5206
Flight time 1h 59m
Altitude 36000
Route IIM W54 AAT B593 NOKAT NOKAT2A
Aircraft A320/M-SDE3FGHIRWY/LB1

Departure

Time 2026-05-09 09:13
Airport Bir Tikendrajit International Airport (VEIM)

Arrival

Time 2026-05-09 11:13
Airport Netaji Subhash Chandra Bose International Airport (VECC)
Time Latitude Longitude Altitude Speed Heading
2026-05-09 08:20 24.76391 93.89819 2549 ft 0 kts 218°
2026-05-09 09:02 24.76402 93.89828 2549 ft 4 kts 213°
2026-05-09 09:02 24.76415 93.89838 2549 ft 0 kts 215°
2026-05-09 09:05 24.76414 93.89838 2549 ft 0 kts 208°
2026-05-09 09:06 24.76413 93.89838 2549 ft 0 kts 193°
2026-05-09 09:06 24.76411 93.89841 2549 ft 0 kts 159°
2026-05-09 09:06 24.76411 93.89842 2549 ft 0 kts 151°
2026-05-09 09:06 24.76401 93.89851 2549 ft 0 kts 140°
2026-05-09 09:07 24.76376 93.89864 2549 ft 7 kts 167°
2026-05-09 09:08 24.76321 93.89911 2549 ft 12 kts 124°
2026-05-09 09:08 24.76316 93.89920 2549 ft 0 kts 125°
2026-05-09 09:09 24.76303 93.89941 2548 ft 7 kts 118°
2026-05-09 09:09 24.76323 93.89991 2548 ft 8 kts 41°
2026-05-09 09:09 24.76375 93.90033 2548 ft 10 kts 33°
2026-05-09 09:09 24.76441 93.90082 2548 ft 12 kts 34°
2026-05-09 09:10 24.76515 93.90138 2549 ft 13 kts 34°
2026-05-09 09:10 24.76593 93.90198 2550 ft 14 kts 34°
2026-05-09 09:10 24.76679 93.90264 2550 ft 16 kts 34°
2026-05-09 09:10 24.76767 93.90333 2550 ft 16 kts 36°
2026-05-09 09:11 24.76862 93.90400 2550 ft 15 kts 33°
2026-05-09 09:11 24.76929 93.90422 2550 ft 11 kts
2026-05-09 09:11 24.76982 93.90441 2549 ft 8 kts 59°
2026-05-09 09:11 24.76958 93.90472 2549 ft 6 kts 197°
2026-05-09 09:12 24.76920 93.90444 2550 ft 7 kts 215°
2026-05-09 09:12 24.76877 93.90412 2550 ft 8 kts 215°
2026-05-09 09:12 24.76822 93.90370 2551 ft 15 kts 215°
2026-05-09 09:12 24.76544 93.90159 2549 ft 91 kts 214°
2026-05-09 09:13 24.75806 93.89600 2556 ft 163 kts 214°
2026-05-09 09:13 24.74834 93.88860 3270 ft 166 kts 213°
2026-05-09 09:13 24.73812 93.88307 3687 ft 167 kts 199°
2026-05-09 09:13 24.72655 93.87901 3824 ft 182 kts 197°
2026-05-09 09:14 24.71396 93.87489 3960 ft 195 kts 197°
2026-05-09 09:14 24.70056 93.87040 4092 ft 206 kts 198°
2026-05-09 09:14 24.68649 93.86554 4222 ft 217 kts 198°
2026-05-09 09:14 24.67170 93.86029 4340 ft 231 kts 198°
2026-05-09 09:15 24.65591 93.85458 4466 ft 248 kts 198°
2026-05-09 09:15 24.63897 93.84837 4598 ft 265 kts 198°
2026-05-09 09:15 24.62113 93.84178 4886 ft 274 kts 199°
2026-05-09 09:15 24.60303 93.83503 5299 ft 276 kts 199°
2026-05-09 09:16 24.59096 93.83051 5574 ft 278 kts 199°
2026-05-09 09:16 24.54802 93.81439 6541 ft 283 kts 199°
2026-05-09 09:16 24.52930 93.80733 6951 ft 285 kts 199°
2026-05-09 09:17 24.51101 93.79883 7327 ft 287 kts 212°
2026-05-09 09:17 24.49617 93.78420 7708 ft 289 kts 233°
2026-05-09 09:17 24.48924 93.77139 7950 ft 290 kts 247°
2026-05-09 09:17 24.48467 93.74988 8305 ft 292 kts 268°
2026-05-09 09:18 24.48978 93.72116 8758 ft 293 kts 296°
2026-05-09 09:18 24.49683 93.70812 8985 ft 294 kts 304°
2026-05-09 09:18 24.50878 93.68980 9326 ft 295 kts 307°
2026-05-09 09:18 24.52183 93.67233 9657 ft 296 kts 311°
2026-05-09 09:19 24.53584 93.65610 10007 ft 298 kts 315°
2026-05-09 09:19 24.55130 93.64039 10132 ft 307 kts 319°
2026-05-09 09:19 24.56768 93.62493 10262 ft 314 kts 315°
2026-05-09 09:19 24.58198 93.60661 10388 ft 318 kts 304°
2026-05-09 09:20 24.59309 93.58547 10520 ft 321 kts 294°
2026-05-09 09:20 24.60051 93.56227 10644 ft 324 kts 283°
2026-05-09 09:20 24.60395 93.53772 10769 ft 327 kts 272°
2026-05-09 09:20 24.60321 93.51265 10895 ft 329 kts 262°
2026-05-09 09:21 24.59819 93.48803 11023 ft 331 kts 251°
2026-05-09 09:21 24.58989 93.46438 11190 ft 332 kts 248°
2026-05-09 09:21 24.58147 93.44073 11368 ft 332 kts 249°
2026-05-09 09:21 24.57312 93.41700 11528 ft 333 kts 249°
2026-05-09 09:22 24.56479 93.39329 11716 ft 333 kts 249°
2026-05-09 09:22 24.55644 93.36950 11877 ft 334 kts 249°
2026-05-09 09:22 24.54820 93.34607 12075 ft 333 kts 249°
2026-05-09 09:22 24.53971 93.32199 12231 ft 334 kts 248°
2026-05-09 09:23 24.53137 93.29851 12400 ft 334 kts 248°
2026-05-09 09:23 24.52292 93.27471 12563 ft 334 kts 248°
2026-05-09 09:23 24.51445 93.25095 12716 ft 335 kts 248°
2026-05-09 09:23 24.50595 93.22709 12860 ft 335 kts 248°
2026-05-09 09:24 24.49749 93.20328 13004 ft 335 kts 248°
2026-05-09 09:24 24.48904 93.17943 13132 ft 335 kts 248°
2026-05-09 09:24 24.48059 93.15553 13262 ft 336 kts 248°
2026-05-09 09:24 24.47211 93.13163 13388 ft 336 kts 248°
2026-05-09 09:25 24.46362 93.10778 13514 ft 336 kts 248°
2026-05-09 09:25 24.45511 93.08387 13640 ft 337 kts 248°
2026-05-09 09:25 24.44657 93.05992 13763 ft 337 kts 248°
2026-05-09 09:25 24.43801 93.03599 13888 ft 337 kts 248°
2026-05-09 09:26 24.42945 93.01210 14013 ft 336 kts 247°
2026-05-09 09:26 24.42089 92.98823 14134 ft 337 kts 247°
2026-05-09 09:26 24.41233 92.96432 14261 ft 336 kts 247°
2026-05-09 09:26 24.40380 92.94044 14387 ft 336 kts 247°
2026-05-09 09:27 24.39529 92.91659 14507 ft 336 kts 247°
2026-05-09 09:27 24.38676 92.89270 14642 ft 335 kts 247°
2026-05-09 09:27 24.37815 92.86874 14764 ft 337 kts 247°
2026-05-09 09:27 24.36955 92.84476 14888 ft 337 kts 247°
2026-05-09 09:28 24.36112 92.82117 15011 ft 336 kts 247°
2026-05-09 09:28 24.35262 92.79740 15131 ft 335 kts 247°
2026-05-09 09:28 24.34405 92.77368 15260 ft 334 kts 246°
2026-05-09 09:28 24.33533 92.75012 15382 ft 333 kts 246°
2026-05-09 09:29 24.32652 92.72663 15509 ft 333 kts 246°
2026-05-09 09:29 24.31768 92.70315 15633 ft 333 kts 246°
2026-05-09 09:29 24.30887 92.67976 15758 ft 333 kts 246°
2026-05-09 09:29 24.30005 92.65633 15882 ft 332 kts 246°
2026-05-09 09:30 24.29126 92.63295 16007 ft 332 kts 246°
2026-05-09 09:30 24.28250 92.60960 16130 ft 331 kts 246°
2026-05-09 09:30 24.27376 92.58625 16255 ft 330 kts 246°
2026-05-09 09:30 24.26504 92.56300 16382 ft 330 kts 246°
2026-05-09 09:31 24.25630 92.53972 16505 ft 330 kts 246°
2026-05-09 09:31 24.24759 92.51652 16656 ft 328 kts 246°
2026-05-09 09:31 24.23895 92.49346 16809 ft 327 kts 246°
2026-05-09 09:32 24.22159 92.44729 17061 ft 327 kts 246°
2026-05-09 09:32 24.21293 92.42427 17185 ft 327 kts 246°
2026-05-09 09:32 24.20426 92.40122 17310 ft 327 kts 246°
2026-05-09 09:32 24.19563 92.37821 17433 ft 326 kts 246°
2026-05-09 09:33 24.18711 92.35551 17554 ft 326 kts 246°
2026-05-09 09:33 24.17848 92.33254 17683 ft 326 kts 246°
2026-05-09 09:33 24.16984 92.30960 17808 ft 325 kts 246°
2026-05-09 09:33 24.16121 92.28675 17935 ft 325 kts 246°
2026-05-09 09:34 24.15258 92.26390 18058 ft 324 kts 246°
2026-05-09 09:34 24.14396 92.24114 18179 ft 323 kts 246°
2026-05-09 09:34 24.13534 92.21840 18308 ft 323 kts 246°
2026-05-09 09:36 24.07555 92.06030 19193 ft 319 kts 246°
2026-05-09 09:36 24.06705 92.03792 19328 ft 318 kts 246°
2026-05-09 09:36 24.05858 92.01557 19467 ft 318 kts 246°
2026-05-09 09:37 24.05012 91.99323 19585 ft 317 kts 246°
2026-05-09 09:37 24.04177 91.97122 19716 ft 317 kts 246°
2026-05-09 09:37 24.03332 91.94895 19842 ft 317 kts 246°
2026-05-09 09:37 24.02485 91.92668 19970 ft 317 kts 246°
2026-05-09 09:38 24.01635 91.90445 20084 ft 316 kts 246°
2026-05-09 09:38 24.00787 91.88222 20218 ft 316 kts 246°
2026-05-09 09:38 24.00070 91.85952 20343 ft 317 kts 253°
2026-05-09 09:38 23.99601 91.83596 20467 ft 317 kts 257°
2026-05-09 09:39 23.99194 91.81221 20593 ft 317 kts 257°
2026-05-09 09:39 23.98780 91.78853 20727 ft 316 kts 257°
2026-05-09 09:39 23.98364 91.76495 20876 ft 315 kts 257°
2026-05-09 09:39 23.97951 91.74148 21004 ft 314 kts 257°
2026-05-09 09:40 23.97538 91.71803 21129 ft 314 kts 257°
2026-05-09 09:40 23.97126 91.69459 21265 ft 314 kts 257°
2026-05-09 09:40 23.96715 91.67127 21412 ft 312 kts 257°
2026-05-09 09:40 23.96303 91.64797 21541 ft 312 kts 257°
2026-05-09 09:41 23.95892 91.62471 21666 ft 311 kts 257°
2026-05-09 09:41 23.95485 91.60148 21791 ft 311 kts 257°
2026-05-09 09:41 23.95078 91.57832 21916 ft 310 kts 257°
2026-05-09 09:41 23.94674 91.55550 22040 ft 309 kts 257°
2026-05-09 09:42 23.94263 91.53244 22165 ft 309 kts 257°
2026-05-09 09:42 23.93854 91.50940 22290 ft 308 kts 257°
2026-05-09 09:42 23.93446 91.48639 22417 ft 308 kts 257°
2026-05-09 09:42 23.93039 91.46341 22540 ft 307 kts 257°
2026-05-09 09:43 23.92633 91.44050 22664 ft 307 kts 257°
2026-05-09 09:43 23.92227 91.41760 22788 ft 306 kts 257°
2026-05-09 09:43 23.91824 91.39480 22904 ft 305 kts 257°
2026-05-09 09:43 23.91419 91.37203 23041 ft 305 kts 257°
2026-05-09 09:44 23.91012 91.34927 23158 ft 304 kts 257°
2026-05-09 09:44 23.90606 91.32657 23302 ft 304 kts 257°
2026-05-09 09:44 23.90029 91.30453 23452 ft 300 kts 247°
2026-05-09 09:44 23.89081 91.28426 23576 ft 300 kts 237°
2026-05-09 09:45 23.87792 91.26640 23710 ft 300 kts 227°
2026-05-09 09:45 23.86209 91.25143 23828 ft 302 kts 217°
2026-05-09 09:45 23.84381 91.23996 23948 ft 305 kts 207°
2026-05-09 09:45 23.82360 91.23248 24084 ft 309 kts 197°
2026-05-09 09:46 23.80214 91.22915 24202 ft 313 kts 191°
2026-05-09 09:46 23.78052 91.22690 24324 ft 312 kts 191°
2026-05-09 09:46 23.75890 91.22466 24457 ft 311 kts 191°
2026-05-09 09:46 23.73733 91.22240 24577 ft 311 kts 191°
2026-05-09 09:47 23.71581 91.22010 24703 ft 311 kts 191°
2026-05-09 09:47 23.69431 91.21783 24828 ft 310 kts 192°
2026-05-09 09:47 23.67314 91.21559 24952 ft 309 kts 192°
2026-05-09 09:47 23.65176 91.21333 25076 ft 309 kts 192°
2026-05-09 09:48 23.63040 91.21107 25202 ft 308 kts 192°
2026-05-09 09:48 23.60911 91.20882 25326 ft 307 kts 192°
2026-05-09 09:48 23.58786 91.20657 25450 ft 306 kts 192°
2026-05-09 09:48 23.56667 91.20434 25575 ft 305 kts 192°
2026-05-09 09:49 23.54557 91.20212 25699 ft 304 kts 192°
2026-05-09 09:49 23.52450 91.19988 25824 ft 303 kts 192°
2026-05-09 09:49 23.50370 91.19700 25947 ft 299 kts 198°
2026-05-09 09:49 23.48394 91.19081 26071 ft 293 kts 206°
2026-05-09 09:50 23.46571 91.18135 26196 ft 288 kts 215°
2026-05-09 09:50 23.44940 91.16904 26335 ft 283 kts 223°
2026-05-09 09:50 23.43532 91.15431 26482 ft 279 kts 230°
2026-05-09 09:50 23.42358 91.13759 26614 ft 277 kts 237°
2026-05-09 09:51 23.41437 91.11916 26732 ft 277 kts 245°
2026-05-09 09:51 23.40788 91.09946 26875 ft 277 kts 250°
2026-05-09 09:51 23.40232 91.07938 26987 ft 276 kts 250°
2026-05-09 09:51 23.39671 91.05944 27111 ft 275 kts 250°
2026-05-09 09:52 23.39108 91.03959 27244 ft 274 kts 250°
2026-05-09 09:52 23.38547 91.01981 27361 ft 273 kts 250°
2026-05-09 09:52 23.37990 91.00013 27486 ft 272 kts 250°
2026-05-09 09:52 23.37434 90.98047 27612 ft 271 kts 250°
2026-05-09 09:53 23.36878 90.96091 27734 ft 270 kts 250°
2026-05-09 09:53 23.36325 90.94137 27861 ft 269 kts 250°
2026-05-09 09:53 23.35775 90.92192 27983 ft 268 kts 250°
2026-05-09 09:53 23.35227 90.90252 28110 ft 268 kts 250°
2026-05-09 09:54 23.34681 90.88319 28236 ft 267 kts 250°
2026-05-09 09:54 23.34142 90.86418 28359 ft 266 kts 249°
2026-05-09 09:54 23.33598 90.84500 28484 ft 265 kts 249°
2026-05-09 09:54 23.33056 90.82588 28609 ft 264 kts 249°
2026-05-09 09:55 23.32514 90.80680 28735 ft 263 kts 249°
2026-05-09 09:55 23.31975 90.78786 28858 ft 262 kts 249°
2026-05-09 09:55 23.31434 90.76897 28989 ft 261 kts 249°
2026-05-09 09:55 23.30896 90.75018 29107 ft 260 kts 249°
2026-05-09 09:56 23.30363 90.73145 29233 ft 259 kts 249°
2026-05-09 09:56 23.29830 90.71278 29358 ft 257 kts 249°
2026-05-09 09:56 23.29302 90.69428 29487 ft 256 kts 249°
2026-05-09 09:56 23.28775 90.67585 29607 ft 255 kts 248°
2026-05-09 09:57 23.28250 90.65746 29730 ft 253 kts 248°
2026-05-09 09:57 23.27727 90.63922 29857 ft 252 kts 248°
2026-05-09 09:57 23.27205 90.62106 29982 ft 251 kts 248°
2026-05-09 09:57 23.26688 90.60301 30115 ft 249 kts 248°
2026-05-09 09:58 23.26165 90.58477 29944 ft 258 kts 248°
2026-05-09 09:58 23.25625 90.56595 29892 ft 261 kts 248°
2026-05-09 09:58 23.25086 90.54714 30024 ft 259 kts 248°
2026-05-09 09:58 23.24558 90.52872 30139 ft 257 kts 248°
2026-05-09 09:59 23.24026 90.51024 30255 ft 255 kts 248°
2026-05-09 09:59 23.23497 90.49184 30395 ft 254 kts 248°
2026-05-09 09:59 23.22974 90.47358 30512 ft 252 kts 249°
2026-05-09 09:59 23.22455 90.45547 30636 ft 250 kts 248°
2026-05-09 10:00 23.21941 90.43745 30762 ft 249 kts 249°
2026-05-09 10:00 23.21439 90.41949 30881 ft 247 kts 249°
2026-05-09 10:00 23.20946 90.40163 31009 ft 246 kts 249°
2026-05-09 10:00 23.20458 90.38391 31129 ft 244 kts 249°
2026-05-09 10:01 23.19973 90.36635 31260 ft 241 kts 249°
2026-05-09 10:01 23.19490 90.34894 31383 ft 239 kts 249°
2026-05-09 10:01 23.19012 90.33173 31507 ft 237 kts 249°
2026-05-09 10:01 23.18538 90.31465 31630 ft 235 kts 249°
2026-05-09 10:02 23.18227 90.30343 31714 ft 233 kts 249°
2026-05-09 10:02 23.17606 90.28118 31728 ft 237 kts 249°
2026-05-09 10:02 23.17272 90.26932 31390 ft 250 kts 249°
2026-05-09 10:02 23.16566 90.24433 30766 ft 270 kts 249°
2026-05-09 10:03 23.16011 90.22446 30514 ft 279 kts 249°
2026-05-09 10:03 23.15439 90.20393 30249 ft 288 kts 249°
2026-05-09 10:03 23.14852 90.18279 30013 ft 296 kts 249°
2026-05-09 10:03 23.14447 90.16823 29837 ft 300 kts 249°
2026-05-09 10:04 23.13844 90.14656 29591 ft 307 kts 249°
2026-05-09 10:04 23.13219 90.12416 29337 ft 313 kts 249°
2026-05-09 10:04 23.12579 90.10133 29085 ft 318 kts 250°
2026-05-09 10:04 23.11928 90.07815 28830 ft 323 kts 250°
2026-05-09 10:05 23.11270 90.05466 28584 ft 327 kts 250°
2026-05-09 10:05 23.10603 90.03082 28340 ft 331 kts 250°
2026-05-09 10:05 23.09931 90.00681 28116 ft 333 kts 250°
2026-05-09 10:05 23.09254 89.98267 27868 ft 333 kts 250°
2026-05-09 10:06 23.08579 89.95863 27618 ft 332 kts 250°
2026-05-09 10:06 23.07898 89.93469 27368 ft 332 kts 250°
2026-05-09 10:06 23.07214 89.91075 27116 ft 331 kts 250°
2026-05-09 10:06 23.06530 89.88684 26862 ft 331 kts 250°
2026-05-09 10:07 23.05843 89.86295 26615 ft 331 kts 250°
2026-05-09 10:07 23.05159 89.83918 26362 ft 330 kts 250°
2026-05-09 10:07 23.04473 89.81540 26113 ft 330 kts 251°
2026-05-09 10:07 23.03789 89.79167 25862 ft 329 kts 251°
2026-05-09 10:08 23.03106 89.76794 25607 ft 329 kts 251°
2026-05-09 10:08 23.02423 89.74425 25348 ft 329 kts 251°
2026-05-09 10:08 23.01745 89.72072 25099 ft 325 kts 251°
2026-05-09 10:08 23.01076 89.69749 24846 ft 321 kts 251°
2026-05-09 10:09 23.00411 89.67442 24598 ft 318 kts 251°
2026-05-09 10:09 22.99754 89.65158 24347 ft 316 kts 251°
2026-05-09 10:09 22.99098 89.62883 24095 ft 315 kts 251°
2026-05-09 10:09 22.98448 89.60621 23844 ft 313 kts 251°
2026-05-09 10:10 22.97799 89.58372 23591 ft 312 kts 251°
2026-05-09 10:10 22.97150 89.56130 23344 ft 311 kts 251°
2026-05-09 10:10 22.96500 89.53889 23092 ft 311 kts 251°
2026-05-09 10:10 22.95854 89.51653 22842 ft 310 kts 251°
2026-05-09 10:11 22.95207 89.49418 22591 ft 310 kts 251°
2026-05-09 10:11 22.94557 89.47185 22340 ft 310 kts 251°
2026-05-09 10:11 22.93906 89.44950 22089 ft 311 kts 251°
2026-05-09 10:11 22.93264 89.42745 21841 ft 311 kts 251°
2026-05-09 10:12 22.92612 89.40502 21594 ft 312 kts 251°
2026-05-09 10:12 22.91960 89.38250 21350 ft 313 kts 251°
2026-05-09 10:12 22.91308 89.35997 21096 ft 314 kts 251°
2026-05-09 10:12 22.90652 89.33734 20841 ft 315 kts 251°
2026-05-09 10:13 22.89992 89.31464 20591 ft 316 kts 251°
2026-05-09 10:13 22.89330 89.29191 20341 ft 317 kts 251°
2026-05-09 10:13 22.88667 89.26908 20087 ft 318 kts 252°
2026-05-09 10:13 22.88003 89.24618 19837 ft 318 kts 252°
2026-05-09 10:14 22.87340 89.22332 19585 ft 317 kts 252°
2026-05-09 10:14 22.86677 89.20052 19332 ft 317 kts 252°
2026-05-09 10:14 22.86015 89.17775 19084 ft 317 kts 251°
2026-05-09 10:14 22.85350 89.15499 18842 ft 316 kts 251°
2026-05-09 10:15 22.84684 89.13225 18585 ft 316 kts 251°
2026-05-09 10:15 22.84019 89.10961 18333 ft 315 kts 251°
2026-05-09 10:15 22.83363 89.08723 18088 ft 315 kts 252°
2026-05-09 10:15 22.82704 89.06462 17836 ft 314 kts 252°
2026-05-09 10:16 22.82047 89.04207 17586 ft 314 kts 252°
2026-05-09 10:16 22.81389 89.01954 17336 ft 313 kts 252°
2026-05-09 10:16 22.80730 88.99707 17085 ft 313 kts 252°
2026-05-09 10:16 22.80073 88.97465 16833 ft 312 kts 252°
2026-05-09 10:17 22.79500 88.95199 16580 ft 312 kts 261°
2026-05-09 10:17 22.79418 88.92850 16334 ft 313 kts 276°
2026-05-09 10:17 22.79822 88.90533 16084 ft 314 kts 282°
2026-05-09 10:17 22.80297 88.88246 15845 ft 310 kts 281°
2026-05-09 10:18 22.80770 88.85990 15597 ft 306 kts 281°
2026-05-09 10:18 22.81241 88.83725 15345 ft 302 kts 281°
2026-05-09 10:18 22.81687 88.81599 15011 ft 279 kts 282°
2026-05-09 10:18 22.82114 88.79559 14643 ft 279 kts 282°
2026-05-09 10:19 22.82544 88.77495 14253 ft 281 kts 282°
2026-05-09 10:19 22.82965 88.75451 13890 ft 284 kts 281°
2026-05-09 10:19 22.83262 88.73271 13799 ft 298 kts 277°
2026-05-09 10:19 22.83530 88.71014 13803 ft 303 kts 277°
2026-05-09 10:20 22.83804 88.68744 13810 ft 304 kts 277°
2026-05-09 10:20 22.84076 88.66494 13806 ft 291 kts 277°
2026-05-09 10:20 22.84325 88.64430 13811 ft 262 kts 277°
2026-05-09 10:20 22.84551 88.62564 13813 ft 240 kts 277°
2026-05-09 10:21 22.85105 88.60880 13799 ft 240 kts 306°
2026-05-09 10:21 22.86394 88.59755 13815 ft 242 kts 338°
2026-05-09 10:21 22.88062 88.59550 13821 ft 246 kts
2026-05-09 10:21 22.89764 88.59851 13811 ft 248 kts
2026-05-09 10:22 22.91472 88.60138 13813 ft 248 kts
2026-05-09 10:22 22.93182 88.60415 13788 ft 248 kts
2026-05-09 10:22 22.94880 88.60556 13260 ft 244 kts 347°
2026-05-09 10:22 22.96342 88.59746 12619 ft 242 kts 311°
2026-05-09 10:23 22.97022 88.58109 11952 ft 244 kts 273°
2026-05-09 10:23 22.96603 88.56348 11297 ft 248 kts 236°
2026-05-09 10:23 22.95304 88.55111 10632 ft 253 kts 212°
2026-05-09 10:23 22.93717 88.54244 9946 ft 256 kts 205°
2026-05-09 10:24 22.92081 88.53473 9234 ft 257 kts 205°
2026-05-09 10:24 22.90454 88.52664 8547 ft 258 kts 206°
2026-05-09 10:24 22.88849 88.51795 7868 ft 258 kts 208°
2026-05-09 10:24 22.87273 88.50877 7178 ft 256 kts 210°
2026-05-09 10:25 22.85745 88.49938 6864 ft 245 kts 210°
2026-05-09 10:25 22.84348 88.49061 6802 ft 221 kts 210°
2026-05-09 10:25 22.83061 88.48242 6812 ft 211 kts 211°
2026-05-09 10:25 22.81821 88.47441 6801 ft 210 kts 212°
2026-05-09 10:26 22.80557 88.46688 6812 ft 208 kts 200°
2026-05-09 10:26 22.79132 88.46371 6819 ft 212 kts 187°
2026-05-09 10:26 22.77664 88.46210 6806 ft 211 kts 187°
2026-05-09 10:26 22.76203 88.46042 6761 ft 211 kts 187°
2026-05-09 10:27 22.74785 88.45876 6305 ft 200 kts 187°
2026-05-09 10:27 22.73410 88.45722 5765 ft 196 kts 186°
2026-05-09 10:27 22.72088 88.45567 5293 ft 183 kts 186°
2026-05-09 10:27 22.70876 88.45423 4815 ft 168 kts 187°
2026-05-09 10:28 22.69743 88.45284 4365 ft 159 kts 187°
2026-05-09 10:28 22.68671 88.45149 4132 ft 150 kts 187°
2026-05-09 10:28 22.67644 88.45023 4348 ft 150 kts 187°
2026-05-09 10:28 22.66602 88.44920 4572 ft 151 kts 178°
2026-05-09 10:29 22.65649 88.45373 4767 ft 156 kts 142°
2026-05-09 10:29 22.64725 88.46098 4823 ft 173 kts 148°
2026-05-09 10:29 22.63691 88.46804 4820 ft 176 kts 149°
2026-05-09 10:29 22.62637 88.47505 4812 ft 179 kts 149°
2026-05-09 10:30 22.61593 88.48197 4818 ft 178 kts 149°
2026-05-09 10:30 22.60533 88.48897 4821 ft 178 kts 149°
2026-05-09 10:30 22.59475 88.49598 4821 ft 178 kts 149°
2026-05-09 10:30 22.58419 88.50301 4816 ft 178 kts 147°
2026-05-09 10:31 22.57607 88.51289 4809 ft 178 kts 115°
2026-05-09 10:31 22.57444 88.52612 4817 ft 181 kts 79°
2026-05-09 10:31 22.57955 88.53849 4808 ft 182 kts 60°
2026-05-09 10:31 22.58581 88.55040 4808 ft 180 kts 61°
2026-05-09 10:32 22.59203 88.56223 4816 ft 181 kts 60°
2026-05-09 10:32 22.59828 88.57407 4806 ft 181 kts 60°
2026-05-09 10:32 22.60453 88.58593 4807 ft 182 kts 60°
2026-05-09 10:32 22.61082 88.59783 4812 ft 182 kts 60°
2026-05-09 10:33 22.61708 88.60971 4810 ft 181 kts 60°
2026-05-09 10:33 22.62331 88.62160 4811 ft 182 kts 60°
2026-05-09 10:33 22.62956 88.63350 4823 ft 182 kts 60°
2026-05-09 10:33 22.63580 88.64538 4823 ft 181 kts 60°
2026-05-09 10:34 22.64204 88.65730 4817 ft 181 kts 61°
2026-05-09 10:34 22.65451 88.68115 4823 ft 183 kts 60°
2026-05-09 10:34 22.66078 88.69310 4809 ft 183 kts 60°
2026-05-09 10:35 22.66702 88.70500 4811 ft 181 kts 60°
2026-05-09 10:35 22.67323 88.71683 4810 ft 180 kts 59°
2026-05-09 10:35 22.67942 88.72866 4822 ft 181 kts 60°
2026-05-09 10:35 22.68564 88.74051 4809 ft 181 kts 60°
2026-05-09 10:36 22.69186 88.75237 4810 ft 182 kts 60°
2026-05-09 10:36 22.69810 88.76425 4817 ft 182 kts 60°
2026-05-09 10:36 22.70432 88.77614 4810 ft 181 kts 60°
2026-05-09 10:36 22.71054 88.78803 4817 ft 181 kts 60°
2026-05-09 10:37 22.71673 88.79990 4812 ft 181 kts 60°
2026-05-09 10:37 22.72285 88.81159 4812 ft 180 kts 60°
2026-05-09 10:37 22.72906 88.82343 4809 ft 181 kts 60°
2026-05-09 10:37 22.73528 88.83532 4820 ft 181 kts 60°
2026-05-09 10:38 22.74148 88.84718 4820 ft 181 kts 60°
2026-05-09 10:38 22.74766 88.85896 4800 ft 179 kts 60°
2026-05-09 10:38 22.75395 88.87084 4810 ft 182 kts 59°
2026-05-09 10:38 22.76020 88.88280 4820 ft 182 kts 60°
2026-05-09 10:39 22.76646 88.89460 4801 ft 178 kts 60°
2026-05-09 10:39 22.77263 88.90638 4810 ft 181 kts 60°
2026-05-09 10:39 22.77878 88.91827 4811 ft 181 kts 60°
2026-05-09 10:39 22.78486 88.93001 4813 ft 181 kts 60°
2026-05-09 10:40 22.79093 88.94189 4797 ft 178 kts 67°
2026-05-09 10:40 22.79257 88.95500 4801 ft 181 kts 102°
2026-05-09 10:40 22.78649 88.96672 4814 ft 181 kts 141°
2026-05-09 10:40 22.77506 88.97156 4816 ft 179 kts 180°
2026-05-09 10:41 22.76333 88.96785 4817 ft 179 kts 217°
2026-05-09 10:41 22.75594 88.95739 4832 ft 177 kts 245°
2026-05-09 10:41 22.75034 88.94546 4822 ft 177 kts 243°
2026-05-09 10:41 22.74452 88.93349 4825 ft 183 kts 242°
2026-05-09 10:42 22.73859 88.92141 4828 ft 182 kts 242°
2026-05-09 10:42 22.73326 88.90940 4797 ft 177 kts 255°
2026-05-09 10:42 22.73310 88.89636 4814 ft 175 kts 289°
2026-05-09 10:42 22.74020 88.88581 4809 ft 177 kts 324°
2026-05-09 10:43 22.75172 88.88220 4805 ft 179 kts
2026-05-09 10:43 22.76319 88.88703 4808 ft 181 kts 43°
2026-05-09 10:43 22.77010 88.89820 4822 ft 180 kts 63°
2026-05-09 10:43 22.77585 88.91030 4823 ft 180 kts 63°
2026-05-09 10:44 22.78166 88.92238 4812 ft 180 kts 62°
2026-05-09 10:44 22.78749 88.93450 4811 ft 181 kts 62°
2026-05-09 10:44 22.79331 88.94656 4821 ft 178 kts 62°
2026-05-09 10:44 22.79908 88.95861 4814 ft 182 kts 62°
2026-05-09 10:45 22.80448 88.97110 4812 ft 183 kts 77°
2026-05-09 10:46 22.77370 88.99581 4779 ft 151 kts 205°
2026-05-09 10:46 22.76697 88.98767 4791 ft 150 kts 258°
2026-05-09 10:46 22.76746 88.97661 4827 ft 150 kts 284°
2026-05-09 10:46 22.77060 88.96553 4828 ft 157 kts 288°
2026-05-09 10:47 22.77425 88.95448 4826 ft 155 kts 290°
2026-05-09 10:47 22.77795 88.94365 4805 ft 152 kts 290°
2026-05-09 10:47 22.78163 88.93289 4807 ft 152 kts 290°
2026-05-09 10:47 22.78533 88.92212 4812 ft 152 kts 290°
2026-05-09 10:48 22.78903 88.91134 4818 ft 153 kts 290°
2026-05-09 10:48 22.79270 88.90068 4816 ft 153 kts 290°
2026-05-09 10:48 22.79643 88.88989 4808 ft 153 kts 290°
2026-05-09 10:48 22.80017 88.87914 4806 ft 153 kts 290°
2026-05-09 10:49 22.80265 88.87198 4820 ft 152 kts 290°
2026-05-09 10:49 22.80767 88.85757 4816 ft 153 kts 290°
2026-05-09 10:49 22.81131 88.84673 4815 ft 153 kts 285°
2026-05-09 10:49 22.81304 88.83934 4809 ft 153 kts 282°
2026-05-09 10:50 22.81526 88.82808 4816 ft 153 kts 281°
2026-05-09 10:50 22.81742 88.81678 4815 ft 153 kts 281°
2026-05-09 10:50 22.81961 88.80548 4815 ft 153 kts 282°
2026-05-09 10:50 22.82181 88.79419 4822 ft 153 kts 282°
2026-05-09 10:51 22.82404 88.78289 4810 ft 153 kts 282°
2026-05-09 10:51 22.82631 88.77162 4810 ft 153 kts 282°
2026-05-09 10:51 22.82858 88.76036 4808 ft 152 kts 282°
2026-05-09 10:51 22.83077 88.74926 4798 ft 154 kts 278°
2026-05-09 10:52 22.83212 88.73765 4666 ft 152 kts 277°
2026-05-09 10:52 22.83347 88.72629 4542 ft 152 kts 277°
2026-05-09 10:52 22.83484 88.71494 4417 ft 152 kts 277°
2026-05-09 10:52 22.83619 88.70362 4293 ft 151 kts 276°
2026-05-09 10:53 22.83753 88.69250 4167 ft 150 kts 277°
2026-05-09 10:53 22.83891 88.68122 4039 ft 150 kts 276°
2026-05-09 10:53 22.84025 88.67004 3913 ft 149 kts 276°
2026-05-09 10:53 22.84158 88.65887 3793 ft 150 kts 276°
2026-05-09 10:54 22.84291 88.64767 3663 ft 149 kts 276°
2026-05-09 10:54 22.84422 88.63648 3537 ft 149 kts 276°
2026-05-09 10:54 22.84555 88.62537 3412 ft 148 kts 276°
2026-05-09 10:54 22.84690 88.61425 3289 ft 149 kts 276°
2026-05-09 10:55 22.84837 88.60314 3163 ft 150 kts 283°
2026-05-09 10:55 22.85445 88.59428 3010 ft 152 kts 333°
2026-05-09 10:55 22.86478 88.59308 2906 ft 153 kts
2026-05-09 10:55 22.87546 88.59486 2786 ft 155 kts
2026-05-09 10:56 22.88614 88.59662 2659 ft 155 kts
2026-05-09 10:56 22.89678 88.59837 2543 ft 155 kts
2026-05-09 10:56 22.90740 88.60011 2469 ft 154 kts
2026-05-09 10:56 22.91803 88.60183 2409 ft 153 kts
2026-05-09 10:57 22.92847 88.60354 2411 ft 155 kts
2026-05-09 10:57 22.93913 88.60527 2409 ft 155 kts
2026-05-09 10:57 22.94977 88.60528 2405 ft 153 kts 341°
2026-05-09 10:57 22.95837 88.59901 2423 ft 150 kts 305°
2026-05-09 10:58 22.96194 88.58869 2413 ft 147 kts 270°
2026-05-09 10:58 22.95955 88.57818 2411 ft 145 kts 236°
2026-05-09 10:58 22.95232 88.57083 2411 ft 143 kts 212°
2026-05-09 10:58 22.94395 88.56490 2407 ft 145 kts 213°
2026-05-09 10:59 22.93556 88.55893 2408 ft 144 kts 213°
2026-05-09 10:59 22.92716 88.55298 2409 ft 144 kts 213°
2026-05-09 10:59 22.91879 88.54704 2409 ft 143 kts 213°
2026-05-09 10:59 22.91044 88.54108 2410 ft 144 kts 213°
2026-05-09 11:00 22.90208 88.53510 2392 ft 144 kts 213°
2026-05-09 11:00 22.89375 88.52913 2402 ft 144 kts 213°
2026-05-09 11:00 22.88466 88.52266 2421 ft 166 kts 213°
2026-05-09 11:00 22.87486 88.51569 2415 ft 171 kts 212°
2026-05-09 11:01 22.86491 88.50865 2409 ft 170 kts 213°
2026-05-09 11:01 22.85495 88.50157 2409 ft 170 kts 213°
2026-05-09 11:01 22.84505 88.49451 2413 ft 170 kts 213°
2026-05-09 11:01 22.83532 88.48755 2412 ft 170 kts 213°
2026-05-09 11:02 22.82547 88.48052 2408 ft 169 kts 213°
2026-05-09 11:02 22.81562 88.47349 2409 ft 170 kts 213°
2026-05-09 11:02 22.80563 88.46674 2408 ft 169 kts 203°
2026-05-09 11:02 22.79419 88.46412 2410 ft 169 kts 186°
2026-05-09 11:03 22.78243 88.46277 2409 ft 171 kts 185°
2026-05-09 11:03 22.77065 88.46137 2409 ft 171 kts 185°
2026-05-09 11:03 22.75916 88.46002 2406 ft 156 kts 185°
2026-05-09 11:03 22.74895 88.45882 2418 ft 143 kts 185°
2026-05-09 11:04 22.73922 88.45768 2410 ft 138 kts 185°
2026-05-09 11:04 22.72973 88.45657 2410 ft 136 kts 185°
2026-05-09 11:04 22.72031 88.45547 2407 ft 136 kts 185°
2026-05-09 11:04 22.71092 88.45436 2408 ft 136 kts 185°
2026-05-09 11:05 22.70154 88.45327 2403 ft 136 kts 185°
2026-05-09 11:05 22.69228 88.45218 2406 ft 136 kts 185°
2026-05-09 11:05 22.68275 88.45173 2136 ft 135 kts 169°
2026-05-09 11:05 22.67434 88.45648 1877 ft 146 kts 130°
2026-05-09 11:06 22.67066 88.46689 1647 ft 157 kts 90°
2026-05-09 11:06 22.67410 88.47805 1553 ft 159 kts 53°
2026-05-09 11:06 22.68313 88.48474 1473 ft 161 kts 17°
2026-05-09 11:06 22.69430 88.48631 1409 ft 162 kts
2026-05-09 11:07 22.70528 88.48772 1555 ft 154 kts
2026-05-09 11:07 22.71570 88.48921 1693 ft 149 kts 10°
2026-05-09 11:07 22.72589 88.49085 1790 ft 151 kts 11°
2026-05-09 11:07 22.73612 88.49314 1850 ft 150 kts 27°
2026-05-09 11:08 22.74405 88.49995 1855 ft 147 kts 41°
2026-05-09 11:08 22.75360 88.50371 1834 ft 150 kts
2026-05-09 11:08 22.76391 88.50301 1834 ft 151 kts 353°
2026-05-09 11:08 22.77372 88.49906 1832 ft 153 kts 326°
2026-05-09 11:09 22.78084 88.49067 1833 ft 153 kts 295°
2026-05-09 11:09 22.78285 88.47972 1860 ft 146 kts 263°
2026-05-09 11:09 22.77954 88.46959 1841 ft 142 kts 232°
2026-05-09 11:09 22.77221 88.46279 1834 ft 139 kts 203°
2026-05-09 11:10 22.76297 88.46046 1826 ft 136 kts 184°
2026-05-09 11:10 22.75346 88.45935 1665 ft 137 kts 184°
2026-05-09 11:10 22.74400 88.45824 1483 ft 137 kts 184°
2026-05-09 11:10 22.73454 88.45714 1303 ft 137 kts 183°
2026-05-09 11:11 22.72518 88.45605 1119 ft 137 kts 183°
2026-05-09 11:11 22.71565 88.45494 941 ft 139 kts 184°
2026-05-09 11:11 22.70600 88.45381 755 ft 140 kts 182°
2026-05-09 11:11 22.69632 88.45268 573 ft 140 kts 184°
2026-05-09 11:12 22.68677 88.45153 378 ft 136 kts 184°
2026-05-09 11:12 22.67733 88.45044 203 ft 136 kts 184°
2026-05-09 11:12 22.66791 88.44933 34 ft 136 kts 185°
2026-05-09 11:12 22.65985 88.44839 28 ft 83 kts 186°
2026-05-09 11:13 22.65619 88.44795 30 ft 33 kts 186°
2026-05-09 11:13 22.65412 88.44725 28 ft 30 kts 210°
2026-05-09 11:13 22.65264 88.44580 24 ft 28 kts 219°
2026-05-09 11:13 22.65090 88.44536 24 ft 25 kts 187°
2026-05-09 11:14 22.64949 88.44515 23 ft 19 kts 189°
2026-05-09 11:14 22.64778 88.44488 23 ft 22 kts 189°
2026-05-09 11:14 22.64658 88.44464 27 ft 10 kts 217°
2026-05-09 11:14 22.64656 88.44403 24 ft 8 kts 282°
2026-05-09 11:15 22.64668 88.44341 24 ft 9 kts 280°
2026-05-09 11:15 22.64676 88.44274 24 ft 9 kts 277°
2026-05-09 11:15 22.64676 88.44205 24 ft 9 kts 248°
2026-05-09 11:15 22.64632 88.44185 25 ft 7 kts 187°
2026-05-09 11:16 22.64581 88.44179 24 ft 8 kts 186°
2026-05-09 11:16 22.64531 88.44177 24 ft 6 kts 161°
2026-05-09 11:16 22.64514 88.44218 24 ft 7 kts 96°
2026-05-09 11:16 22.64510 88.44252 24 ft 0 kts 97°